Location: St. Louis
(38.6270°N, 90.1994°W)
Time: 08:02:55
(UTC-06:00)

SR - Pass Details

Date: 08 December 2021
Orbit: 582 x 872 km, 66.7° (Epoch: 21 January)

Event Time Altitude Azimuth Distance (km) Brightness Sun altitude
Rises 23:28:24 0° 258° (WSW) 2,941 - -73.4°
Reaches altitude 10° 23:32:02 10° 287° (WNW) 1,981 - -73.6°
Maximum altitude 23:33:57 13° 313° (NW) 1,794 - -73.7°
Drops below altitude 10° 23:35:51 10° 339° (NNW) 1,940 - -73.8°
Sets 23:39:21 0° 10° (N) 2,820 - -73.9°
